Time,TemperatureF,DewpointF,PressureIn,WindDirection,WindDirectionDegrees,WindSpeedMPH,WindSpeedGustMPH,Humidity,HourlyPrecipIn,Conditions,Clouds,dailyrainin,SolarRadiationWatts/m^2,SoftwareType,DateUTC
2013-01-23 00:03:00,-1.0,-9.0,-100.00,WSW,258,12.0,18.0,67,0.00,,,0.00,0.000000,,2013-01-23 05:03:00,
2013-01-23 00:12:00,-1.0,-9.0,-100.00,WSW,258,12.0,18.0,67,0.00,,,0.00,0.000000,,2013-01-23 05:12:00,
2013-01-23 00:33:00,-1.0,-8.0,-100.00,West,268,10.0,19.0,73,0.00,,,0.00,0.000000,,2013-01-23 05:33:00,
2013-01-23 00:43:00,-1.0,-8.0,-100.00,West,268,10.0,19.0,73,0.00,,,0.00,0.000000,,2013-01-23 05:43:00,
2013-01-23 00:53:00,-1.0,-8.0,-100.00,West,268,10.0,19.0,73,0.00,,,0.00,0.000000,,2013-01-23 05:53:00,
2013-01-23 01:03:00,-1.0,-8.0,-100.00,West,268,10.0,19.0,73,0.00,,,0.00,0.000000,,2013-01-23 06:03:00,
2013-01-23 01:13:00,-1.0,-8.0,-100.00,West,268,10.0,19.0,73,0.00,,,0.00,0.000000,,2013-01-23 06:13:00,
2013-01-23 01:43:00,-1.0,-6.0,-100.00,West,273,10.0,19.0,77,0.00,,,0.00,0.000000,,2013-01-23 06:43:00,
2013-01-23 01:53:00,-1.0,-6.0,-100.00,West,273,10.0,19.0,77,0.00,,,0.00,0.000000,,2013-01-23 06:53:00,
2013-01-23 02:02:00,-1.0,-6.0,-100.00,West,273,10.0,19.0,77,0.00,,,0.00,0.000000,,2013-01-23 07:02:00,
2013-01-23 02:13:00,-1.0,-6.0,-100.00,West,273,10.0,19.0,77,0.00,,,0.00,0.000000,,2013-01-23 07:13:00,
2013-01-23 02:33:00,-1.0,-6.0,-100.00,West,276,8.0,21.0,78,0.00,,,0.00,0.000000,,2013-01-23 07:33:00,
2013-01-23 02:43:00,-1.0,-6.0,-100.00,West,276,8.0,21.0,78,0.00,,,0.00,0.000000,,2013-01-23 07:43:00,
2013-01-23 02:53:00,-1.0,-6.0,-100.00,West,276,8.0,21.0,78,0.00,,,0.00,0.000000,,2013-01-23 07:53:00,
2013-01-23 03:02:00,-1.0,-6.0,-100.00,West,276,8.0,21.0,78,0.00,,,0.00,0.000000,,2013-01-23 08:02:00,
2013-01-23 03:13:00,-1.0,-6.0,-100.00,West,276,8.0,21.0,78,0.00,,,0.00,0.000000,,2013-01-23 08:13:00,
2013-01-23 03:43:00,-1.0,-6.0,-100.00,West,269,9.0,16.0,78,0.00,,,0.00,0.000000,,2013-01-23 08:43:00,
2013-01-23 03:53:00,-1.0,-6.0,-100.00,West,269,9.0,16.0,78,0.00,,,0.00,0.000000,,2013-01-23 08:53:00,
2013-01-23 04:03:00,-1.0,-6.0,-100.00,West,269,9.0,16.0,78,0.00,,,0.00,0.000000,,2013-01-23 09:03:00,
2013-01-23 04:12:00,-1.0,-6.0,-100.00,West,269,9.0,16.0,78,0.00,,,0.00,0.000000,,2013-01-23 09:12:00,
2013-01-23 04:44:00,-1.0,-6.0,-100.00,West,276,9.0,15.0,78,0.00,,,0.00,0.000000,,2013-01-23 09:44:00,
2013-01-23 04:53:00,-1.0,-6.0,-100.00,West,276,9.0,15.0,78,0.00,,,0.00,0.000000,,2013-01-23 09:53:00,
2013-01-23 05:03:00,-1.0,-6.0,-100.00,West,276,9.0,15.0,78,0.00,,,0.00,0.000000,,2013-01-23 10:03:00,
2013-01-23 05:12:00,-1.0,-6.0,-100.00,West,276,9.0,15.0,78,0.00,,,0.00,0.000000,,2013-01-23 10:12:00,
2013-01-23 05:33:00,-2.0,-7.0,-100.00,West,274,9.0,18.0,78,0.00,,,0.00,0.000000,,2013-01-23 10:33:00,
2013-01-23 05:43:00,-2.0,-7.0,-100.00,West,274,9.0,18.0,78,0.00,,,0.00,0.000000,,2013-01-23 10:43:00,
2013-01-23 05:53:00,-2.0,-7.0,-100.00,West,274,9.0,18.0,78,0.00,,,0.00,0.000000,,2013-01-23 10:53:00,
2013-01-23 06:03:00,-2.0,-7.0,-100.00,West,274,9.0,18.0,78,0.00,,,0.00,0.000000,,2013-01-23 11:03:00,
2013-01-23 06:12:00,-2.0,-7.0,-100.00,West,274,9.0,18.0,78,0.00,,,0.00,0.000000,,2013-01-23 11:12:00,
2013-01-23 06:34:00,-2.0,-7.0,-100.00,West,278,10.0,19.0,78,0.00,,,0.00,0.000000,,2013-01-23 11:34:00,
2013-01-23 06:43:00,-2.0,-7.0,-100.00,West,278,10.0,19.0,78,0.00,,,0.00,0.000000,,2013-01-23 11:43:00,
2013-01-23 06:53:00,-2.0,-7.0,-100.00,West,278,10.0,19.0,78,0.00,,,0.00,0.000000,,2013-01-23 11:53:00,
2013-01-23 07:03:00,-2.0,-7.0,-100.00,West,278,10.0,19.0,78,0.00,,,0.00,0.000000,,2013-01-23 12:03:00,
2013-01-23 07:13:00,-2.0,-7.0,-100.00,West,278,10.0,19.0,78,0.00,,,0.00,0.000000,,2013-01-23 12:13:00,
2013-01-23 07:33:00,-2.0,-7.0,-100.00,West,276,9.0,18.0,78,0.00,,,0.00,0.000000,,2013-01-23 12:33:00,
2013-01-23 07:43:00,-2.0,-7.0,-100.00,West,276,9.0,18.0,78,0.00,,,0.00,0.000000,,2013-01-23 12:43:00,
2013-01-23 07:53:00,-2.0,-7.0,-100.00,West,276,9.0,18.0,78,0.00,,,0.00,0.000000,,2013-01-23 12:53:00,
2013-01-23 08:04:00,-2.0,-7.0,-100.00,West,276,9.0,18.0,78,0.00,,,0.00,0.000000,,2013-01-23 13:04:00,
2013-01-23 08:13:00,-2.0,-7.0,-100.00,West,276,9.0,18.0,78,0.00,,,0.00,0.000000,,2013-01-23 13:13:00,
2013-01-23 08:34:00,-2.0,-7.0,-100.00,WNW,285,8.0,16.0,78,0.00,,,0.00,12.000000,,2013-01-23 13:34:00,
2013-01-23 08:43:00,-2.0,-7.0,-100.00,WNW,285,8.0,16.0,78,0.00,,,0.00,12.000000,,2013-01-23 13:43:00,
2013-01-23 08:53:00,-2.0,-7.0,-100.00,WNW,285,8.0,16.0,78,0.00,,,0.00,12.000000,,2013-01-23 13:53:00,
2013-01-23 09:03:00,-2.0,-7.0,-100.00,WNW,285,8.0,16.0,78,0.00,,,0.00,12.000000,,2013-01-23 14:03:00,
2013-01-23 09:12:00,-2.0,-7.0,-100.00,WNW,285,8.0,16.0,78,0.00,,,0.00,12.000000,,2013-01-23 14:12:00,
2013-01-23 09:43:00,3.0,-3.0,-100.00,WNW,286,9.0,17.0,74,0.00,,,0.00,160.000000,,2013-01-23 14:43:00,
2013-01-23 09:53:00,3.0,-3.0,-100.00,WNW,286,9.0,17.0,74,0.00,,,0.00,160.000000,,2013-01-23 14:53:00,
2013-01-23 10:03:00,3.0,-3.0,-100.00,WNW,286,9.0,17.0,74,0.00,,,0.00,160.000000,,2013-01-23 15:03:00,
2013-01-23 10:13:00,3.0,-3.0,-100.00,WNW,286,9.0,17.0,74,0.00,,,0.00,160.000000,,2013-01-23 15:13:00,
2013-01-23 10:33:00,6.0,-2.0,-100.00,WNW,297,8.0,16.0,70,0.00,,,0.00,312.000000,,2013-01-23 15:33:00,
2013-01-23 10:43:00,6.0,-2.0,-100.00,WNW,297,8.0,16.0,70,0.00,,,0.00,312.000000,,2013-01-23 15:43:00,
2013-01-23 10:53:00,6.0,-2.0,-100.00,WNW,297,8.0,16.0,70,0.00,,,0.00,312.000000,,2013-01-23 15:53:00,
2013-01-23 11:03:00,6.0,-2.0,-100.00,WNW,297,8.0,16.0,70,0.00,,,0.00,312.000000,,2013-01-23 16:03:00,
2013-01-23 11:12:00,6.0,-2.0,-100.00,WNW,297,8.0,16.0,70,0.00,,,0.00,312.000000,,2013-01-23 16:12:00,
2013-01-23 11:43:00,7.0,-4.0,-100.00,NW,309,9.0,17.0,60,0.00,,,0.00,354.000000,,2013-01-23 16:43:00,
2013-01-23 11:53:00,7.0,-4.0,-100.00,NW,309,9.0,17.0,60,0.00,,,0.00,354.000000,,2013-01-23 16:53:00,
2013-01-23 12:03:00,7.0,-4.0,-100.00,NW,309,9.0,17.0,60,0.00,,,0.00,354.000000,,2013-01-23 17:03:00,
2013-01-23 12:12:00,7.0,-4.0,-100.00,NW,309,9.0,17.0,60,0.00,,,0.00,354.000000,,2013-01-23 17:12:00,
2013-01-23 12:43:00,7.0,-6.0,-100.00,NW,304,9.0,18.0,55,0.00,,,0.00,325.000000,,2013-01-23 17:43:00,
2013-01-23 12:53:00,7.0,-6.0,-100.00,NW,304,9.0,18.0,55,0.00,,,0.00,325.000000,,2013-01-23 17:53:00,
2013-01-23 13:04:00,7.0,-6.0,-100.00,NW,304,9.0,18.0,55,0.00,,,0.00,325.000000,,2013-01-23 18:04:00,
2013-01-23 13:12:00,7.0,-6.0,-100.00,NW,304,9.0,18.0,55,0.00,,,0.00,325.000000,,2013-01-23 18:12:00,
2013-01-23 13:44:00,8.0,-3.0,-100.00,WNW,298,8.0,15.0,59,0.00,,,0.00,230.000000,,2013-01-23 18:44:00,
2013-01-23 13:53:00,8.0,-3.0,-100.00,WNW,298,8.0,15.0,59,0.00,,,0.00,230.000000,,2013-01-23 18:53:00,
2013-01-23 14:03:00,8.0,-3.0,-100.00,WNW,298,8.0,15.0,59,0.00,,,0.00,230.000000,,2013-01-23 19:03:00,
2013-01-23 14:13:00,8.0,-3.0,-100.00,WNW,298,8.0,15.0,59,0.00,,,0.00,230.000000,,2013-01-23 19:13:00,
2013-01-23 14:43:00,10.0,1.0,-100.00,WSW,257,7.0,17.0,65,0.00,,,0.00,213.000000,,2013-01-23 19:43:00,
2013-01-23 14:53:00,10.0,1.0,-100.00,WSW,257,7.0,17.0,65,0.00,,,0.00,213.000000,,2013-01-23 19:53:00,
2013-01-23 15:03:00,10.0,1.0,-100.00,WSW,257,7.0,17.0,65,0.00,,,0.00,213.000000,,2013-01-23 20:03:00,
2013-01-23 15:13:00,10.0,1.0,-100.00,WSW,257,7.0,17.0,65,0.00,,,0.00,213.000000,,2013-01-23 20:13:00,
2013-01-23 15:43:00,7.0,-3.0,-100.00,NW,309,6.0,17.0,63,0.00,,,0.00,188.000000,,2013-01-23 20:43:00,
2013-01-23 15:54:00,7.0,-3.0,-100.00,NW,309,6.0,17.0,63,0.00,,,0.00,188.000000,,2013-01-23 20:54:00,
2013-01-23 16:03:00,7.0,-3.0,-100.00,NW,309,6.0,17.0,63,0.00,,,0.00,188.000000,,2013-01-23 21:03:00,
2013-01-23 16:12:00,7.0,-3.0,-100.00,NW,309,6.0,17.0,63,0.00,,,0.00,188.000000,,2013-01-23 21:12:00,
2013-01-23 16:43:00,7.0,-4.0,-100.00,NW,310,8.0,17.0,60,0.00,,,0.00,108.000000,,2013-01-23 21:43:00,
2013-01-23 16:53:00,7.0,-4.0,-100.00,NW,310,8.0,17.0,60,0.00,,,0.00,108.000000,,2013-01-23 21:53:00,
2013-01-23 17:03:00,7.0,-4.0,-100.00,NW,310,8.0,17.0,60,0.00,,,0.00,108.000000,,2013-01-23 22:03:00,
2013-01-23 17:13:00,7.0,-4.0,-100.00,NW,310,8.0,17.0,60,0.00,,,0.00,108.000000,,2013-01-23 22:13:00,
2013-01-23 18:03:00,5.0,-4.0,-100.00,NW,305,5.0,14.0,67,0.00,,,0.00,23.000000,,2013-01-23 23:03:00,
2013-01-23 18:13:00,5.0,-4.0,-100.00,NW,305,5.0,14.0,67,0.00,,,0.00,23.000000,,2013-01-23 23:13:00,
2013-01-23 18:43:00,4.0,-4.0,-100.00,WNW,282,5.0,11.0,67,0.00,,,0.00,1.000000,,2013-01-23 23:43:00,
2013-01-23 18:53:00,4.0,-4.0,-100.00,WNW,282,5.0,11.0,67,0.00,,,0.00,1.000000,,2013-01-23 23:53:00,
2013-01-23 19:03:00,4.0,-4.0,-100.00,WNW,282,5.0,11.0,67,0.00,,,0.00,1.000000,,2013-01-24 00:03:00,
2013-01-23 19:12:00,4.0,-4.0,-100.00,WNW,282,5.0,11.0,67,0.00,,,0.00,1.000000,,2013-01-24 00:12:00,
2013-01-23 19:33:00,2.0,-5.0,-100.00,West,265,4.0,7.0,71,0.00,,,0.00,0.000000,,2013-01-24 00:33:00,
2013-01-23 19:43:00,2.0,-5.0,-100.00,West,265,4.0,7.0,71,0.00,,,0.00,0.000000,,2013-01-24 00:43:00,
2013-01-23 19:53:00,2.0,-5.0,-100.00,West,265,4.0,7.0,71,0.00,,,0.00,0.000000,,2013-01-24 00:53:00,
2013-01-23 20:03:00,2.0,-5.0,-100.00,West,265,4.0,7.0,71,0.00,,,0.00,0.000000,,2013-01-24 01:03:00,
2013-01-23 20:12:00,2.0,-5.0,-100.00,West,265,4.0,7.0,71,0.00,,,0.00,0.000000,,2013-01-24 01:12:00,
2013-01-23 20:43:00,2.0,-4.0,-100.00,West,263,5.0,7.0,77,0.00,,,0.00,0.000000,,2013-01-24 01:43:00,
2013-01-23 20:53:00,2.0,-4.0,-100.00,West,263,5.0,7.0,77,0.00,,,0.00,0.000000,,2013-01-24 01:53:00,
2013-01-23 21:03:00,2.0,-4.0,-100.00,West,263,5.0,7.0,77,0.00,,,0.00,0.000000,,2013-01-24 02:03:00,
2013-01-23 21:12:00,2.0,-4.0,-100.00,West,263,5.0,7.0,77,0.00,,,0.00,0.000000,,2013-01-24 02:12:00,
2013-01-23 21:33:00,2.0,-2.0,-100.00,West,269,6.0,9.0,82,0.00,,,0.00,0.000000,,2013-01-24 02:33:00,
2013-01-23 21:43:00,2.0,-2.0,-100.00,West,269,6.0,9.0,82,0.00,,,0.00,0.000000,,2013-01-24 02:43:00,
2013-01-23 21:53:00,2.0,-2.0,-100.00,West,269,6.0,9.0,82,0.00,,,0.00,0.000000,,2013-01-24 02:53:00,
2013-01-23 22:03:00,2.0,-2.0,-100.00,West,269,6.0,9.0,82,0.00,,,0.00,0.000000,,2013-01-24 03:03:00,
2013-01-23 22:12:00,2.0,-2.0,-100.00,West,269,6.0,9.0,82,0.00,,,0.00,0.000000,,2013-01-24 03:12:00,
2013-01-23 22:43:00,2.0,-4.0,-100.00,West,272,6.0,11.0,77,0.00,,,0.00,0.000000,,2013-01-24 03:43:00,
2013-01-23 22:53:00,2.0,-4.0,-100.00,West,272,6.0,11.0,77,0.00,,,0.00,0.000000,,2013-01-24 03:53:00,
2013-01-23 23:03:00,2.0,-4.0,-100.00,West,272,6.0,11.0,77,0.00,,,0.00,0.000000,,2013-01-24 04:03:00,
2013-01-23 23:12:00,2.0,-4.0,-100.00,West,272,6.0,11.0,77,0.00,,,0.00,0.000000,,2013-01-24 04:12:00,
2013-01-23 23:43:00,3.0,-2.0,-100.00,WNW,282,6.0,11.0,78,0.00,,,0.00,0.000000,,2013-01-24 04:43:00,
2013-01-23 23:53:00,3.0,-2.0,-100.00,WNW,282,6.0,11.0,78,0.00,,,0.00,0.000000,,2013-01-24 04:53:00,